Home > Weather > San Luis Obispo > Past weeks

Flag for USA Past Weather in San Luis Obispo, California, USA — Yesterday and Last 2 Weeks

Now
75 °F

Sunny.


Feels Like: 78 °F
Forecast: 57 / 77 °F
Wind: 17 mph from Northwest

Location: San Luis Obispo County-Mc Chesney Field

Current Time: Aug 23, 2016 at 2:06:17 PM

Latest Report: Aug 23, 2016 at 12:56 PM


Visibility: 10 mi

Pressure: 30.06 "Hg

Humidity: 52%

Dew Point: 56 °F

Location of San Luis ObispoLocation

Past Weather in San Luis Obispo — Graph

°F

San Luis Obispo Temperature Yesterday

Maximum temperature yesterday: 76 °F (at 12:56 PM)
Minimum temperature yesterday: 60 °F (at 12:56 AM)
Average temperature yesterday: 65 °F

High & Low Weather Summary for the Past Weeks

 TemperatureHumidityPressure
High82 °F (Aug 14, 11:56 AM)93% (Aug 9, 12:56 AM)30.07 "Hg (Aug 9, 12:56 AM)
Low55 °F (Aug 18, 6:56 AM)40% (Aug 14, 11:56 AM)29.81 "Hg (Aug 8, 3:56 PM)
Average64 °F74%29.93 "Hg
* Reported Aug 8 12:56 PM — Aug 23 12:56 PM, San Luis Obispo, Weather by CustomWeather, © 2016

Note: Actual official high and low records may vary slightly from our data, if they occured in-between our weather recording intervals... More about our weather records

Advertising

San Luis Obispo Weather History for the Previous 24 Hours

Scroll right to see more
 ConditionsComfort  
Time TempWeatherWind HumidityBarometerVisibility
12:56 PM
Tue, Aug 23
75 °FSunny.17 mph52%30.06 "Hg10 mi
11:56 AM74 °FSunny.13 mph52%30.07 "Hg10 mi
10:56 AM70 °FSunny.13 mph59%30.07 "Hg10 mi
9:56 AM65 °FScattered clouds.9 mph70%30.07 "Hg10 mi
8:56 AM61 °FPartly sunny.12 mph81%30.06 "Hg10 mi
7:56 AM60 °FLow clouds.13 mph86%30.03 "Hg10 mi
6:56 AM60 °FLow clouds.12 mph86%30.02 "Hg10 mi
5:56 AM59 °FLow clouds.8 mph90%30.00 "Hg10 mi
4:56 AM59 °FLow clouds.5 mph87%29.98 "Hg10 mi
3:56 AM58 °FPassing clouds.3 mph90%29.98 "Hg10 mi
2:56 AM59 °FPassing clouds.6 mph87%29.99 "Hg10 mi
1:56 AM60 °FPassing clouds.6 mph86%29.99 "Hg10 mi
12:56 AM61 °FLow clouds.8 mph83%30.00 "Hg10 mi
11:56 PM
Mon, Aug 22
62 °FOvercast.10 mph80%30.00 "Hg10 mi
10:56 PM62 °FPassing clouds.13 mph80%30.00 "Hg10 mi
9:56 PM61 °FClear.10 mph81%29.99 "Hg10 mi
8:56 PM62 °FClear.10 mph80%29.98 "Hg10 mi
7:56 PM62 °FSunny.13 mph78%29.96 "Hg10 mi
6:56 PM64 °FSunny.15 mph73%29.95 "Hg10 mi
5:56 PM68 °FSunny.18 mph65%29.94 "Hg10 mi
4:56 PM74 °FSunny.13 mph53%29.93 "Hg10 mi
3:56 PM75 °FSunny.13 mph52%29.94 "Hg10 mi
2:56 PM74 °FSunny.16 mph53%29.95 "Hg10 mi
Weather by CustomWeather, © 2016

See weather overviewHow to use our weather pages